Heber, UT

2:08 PM MDT on March 30, 2017 (GMT -0600)
Heber

Weather History for K36U - December, 2013

Change the Weather History Date:

Saturday, December 14, 2013

  Actual Average (KPVU) Record (KPVU)
Temperature  
Mean Temperature 14 °F -  
Max Temperature 26 °F 35 °F 57 °F (2006)
Min Temperature 1 °F 21 °F 10 °F (1997)
Degree Days  
Heating Degree Days 52    
Moisture  
Dew Point 12 °F    
Average Humidity 88    
Maximum Humidity 100    
Minimum Humidity 69    
Precipitation  
Precipitation 0.00 in - - ()
Sea Level Pressure  
Sea Level Pressure 30.50 in    
Wind  
Wind Speed 0 mph (ESE)    
Max Wind Speed 6 mph    
Max Gust Speed -    
Visibility 5 miles    
Events Fog , Snow    
Averages and records for this station are not official NWS values.
T = Trace of Precipitation, MM = Missing Value Source: NWS Daily Summary

Daily Weather History Graph

Daily Weather History Graph

Search for Another Location

Airport or City:

Trip Planner

Search our weather history database for the weather conditions in past years. The results will help you decide how hot, cold, wet, or windy it might be!

Date:

Astronomy

Dec. 14, 2013 Rise Set
Actual Time 7:41 AM MST 4:59 PM MST
Civil Twilight 7:10 AM MST 5:30 PM MST
Nautical Twilight 6:36 AM MST 6:04 PM MST
Astronomical Twilight 6:03 AM MST 6:38 PM MST
Moon 3:24 PM MST (12/14) 5:05 AM MST (12/14)
Length of Visible Light 10h 19m
Length of Day
9h 18m
Waxing Gibbous, 94% of the Moon is Illuminated
Dec 14
Waxing Gibbous
Dec 17
Full
Dec 25
Last Quarter
Jan 1
New
Jan 7
First Quarter

Hourly Weather History & Observations

Time (MST) Temp. Windchill Dew Point Humidity Pressure Visibility Wind Dir Wind Speed Gust Speed Precip Events Conditions
12:15 AM 14.0 °F - 12.2 °F 93% 30.40 in 7.0 mi Calm Calm - N/A   Overcast
12:35 AM 15.8 °F - 12.2 °F 86% 30.40 in 7.0 mi Calm Calm - N/A   Overcast
12:55 AM 15.8 °F - 12.2 °F 86% 30.40 in 7.0 mi Calm Calm - N/A   Overcast
1:15 AM 14.0 °F - 12.2 °F 93% 30.39 in 5.0 mi Calm Calm - N/A   Mostly Cloudy
1:35 AM 10.4 °F - 6.8 °F 85% 30.39 in 5.0 mi Calm Calm - N/A   Scattered Clouds
1:55 AM 10.4 °F - 8.6 °F 92% 30.40 in 4.0 mi Calm Calm - N/A   Mostly Cloudy
2:15 AM 8.6 °F - 5.0 °F 85% 30.40 in 4.0 mi Calm Calm - N/A   Mostly Cloudy
2:35 AM 6.8 °F - 3.2 °F 85% 30.41 in 4.0 mi Calm Calm - N/A   Scattered Clouds
2:55 AM 8.6 °F 2.0 °F 5.0 °F 85% 30.43 in 4.0 mi East 3.5 mph - N/A   Clear
3:15 AM 6.8 °F - 5.0 °F 92% 30.43 in 4.0 mi Calm Calm - N/A   Clear
3:35 AM 6.8 °F - 5.0 °F 92% 30.43 in 5.0 mi Calm Calm - N/A   Clear
3:55 AM 8.6 °F - 5.0 °F 85% 30.43 in 3.0 mi Calm Calm - N/A   Clear
4:15 AM 3.2 °F - 1.4 °F 92% 30.44 in 4.0 mi Calm Calm - N/A   Clear
4:35 AM 3.2 °F -4.2 °F 1.4 °F 92% 30.44 in 5.0 mi ESE 3.5 mph - N/A   Clear
4:55 AM 5.0 °F - 3.2 °F 92% 30.45 in 5.0 mi Calm Calm - N/A   Clear
5:15 AM 1.4 °F - -2.2 °F 85% 30.46 in 5.0 mi Calm Calm - N/A   Clear
5:35 AM 6.8 °F - 3.2 °F 85% 30.47 in 0.2 mi Calm Calm - N/A Fog Light Freezing Fog
5:55 AM 10.4 °F - 8.6 °F 92% 30.46 in 0.2 mi Calm Calm - N/A Fog Light Freezing Fog
6:15 AM 10.4 °F - 8.6 °F 92% 30.47 in 0.2 mi Calm Calm - N/A Fog Light Freezing Fog
6:35 AM 12.2 °F - 10.4 °F 92% 30.47 in 0.5 mi Calm Calm - N/A Fog Light Freezing Fog
6:55 AM 14.0 °F - 12.2 °F 93% 30.49 in 3.0 mi Calm Calm - N/A   Overcast
7:15 AM 14.0 °F - 12.2 °F 93% 30.49 in 4.0 mi Calm Calm - N/A   Overcast
7:35 AM 14.0 °F - 12.2 °F 93% 30.50 in 3.0 mi Calm Calm - N/A   Overcast
7:55 AM 12.2 °F - 10.4 °F 92% 30.51 in 4.0 mi Calm Calm - N/A   Overcast
8:15 AM 14.0 °F - 12.2 °F 93% 30.52 in 3.0 mi Calm Calm - N/A   Overcast
8:35 AM 14.0 °F - 12.2 °F 93% 30.53 in 4.0 mi Calm Calm - N/A   Overcast
8:55 AM 15.8 °F - 14.0 °F 93% 30.53 in 3.0 mi Calm Calm - N/A Snow Light Snow
9:15 AM 17.6 °F - 14.0 °F 86% 30.53 in 2.5 mi Calm Calm - N/A   Overcast
9:35 AM 17.6 °F - 15.8 °F 93% 30.54 in 2.5 mi Calm Calm - N/A   Overcast
9:55 AM 19.4 °F - 17.6 °F 93% 30.54 in 3.0 mi Calm Calm - N/A   Overcast
10:15 AM 19.4 °F - 17.6 °F 93% 30.56 in 3.0 mi Calm Calm - N/A   Overcast
10:35 AM 21.2 °F - 19.4 °F 93% 30.56 in 3.0 mi Calm Calm - N/A   Overcast
10:55 AM 21.2 °F - 19.4 °F 93% 30.56 in 4.0 mi Calm Calm - N/A   Overcast
11:15 AM 21.2 °F - 21.2 °F 100% 30.56 in 4.0 mi Calm Calm - N/A   Overcast
11:35 AM 21.2 °F - 19.4 °F 93% 30.55 in 4.0 mi Calm Calm - N/A   Overcast
11:55 AM 21.2 °F - 17.6 °F 86% 30.55 in 3.0 mi Calm Calm - N/A   Overcast
12:15 PM 23.0 °F - 17.6 °F 80% 30.54 in 4.0 mi Calm Calm - N/A   Haze
12:35 PM 23.0 °F - 17.6 °F 80% 30.53 in 5.0 mi Calm Calm - N/A   Haze
12:55 PM 23.0 °F - 17.6 °F 80% 30.52 in 5.0 mi Calm Calm - N/A   Haze
1:15 PM 24.8 °F - 17.6 °F 74% 30.52 in 5.0 mi Calm Calm - N/A   Haze
1:35 PM 24.8 °F - 17.6 °F 74% 30.52 in 5.0 mi Calm Calm - N/A   Haze
1:55 PM 24.8 °F - 17.6 °F 74% 30.52 in 7.0 mi Calm Calm - N/A   Overcast
2:15 PM 26.6 °F - 17.6 °F 69% 30.51 in 7.0 mi Calm Calm - N/A   Overcast
2:35 PM 26.6 °F - 17.6 °F 69% 30.51 in 7.0 mi Calm Calm - N/A   Overcast
2:55 PM 26.6 °F - 19.4 °F 74% 30.51 in 7.0 mi Calm Calm - N/A   Overcast
3:15 PM 26.6 °F - 19.4 °F 74% 30.50 in 7.0 mi Calm Calm - N/A   Overcast
3:35 PM 26.6 °F - 19.4 °F 74% 30.50 in 7.0 mi Calm Calm - N/A   Overcast
3:55 PM 26.6 °F - 19.4 °F 74% 30.49 in 7.0 mi Calm Calm - N/A   Overcast
4:15 PM 24.8 °F - 19.4 °F 80% 30.51 in 5.0 mi Calm Calm - N/A   Haze
4:35 PM 23.0 °F - 19.4 °F 86% 30.51 in 5.0 mi Calm Calm - N/A   Haze
4:55 PM 19.4 °F - 15.8 °F 86% 30.51 in 5.0 mi Calm Calm - N/A   Mostly Cloudy
5:15 PM 17.6 °F - 12.2 °F 79% 30.51 in 5.0 mi Calm Calm - N/A   Scattered Clouds
5:35 PM 14.0 °F - 14.0 °F 100% 30.51 in 5.0 mi Calm Calm - N/A   Scattered Clouds
5:55 PM 14.0 °F - 10.4 °F 86% 30.51 in 7.0 mi Calm Calm - N/A   Clear
6:15 PM 12.2 °F - 10.4 °F 92% 30.51 in 7.0 mi Calm Calm - N/A   Clear
6:35 PM 10.4 °F 4.0 °F 8.6 °F 92% 30.52 in 10.0 mi SE 3.5 mph - N/A   Scattered Clouds
6:55 PM 10.4 °F 0.8 °F 8.6 °F 92% 30.53 in 10.0 mi ESE 5.8 mph - N/A   Clear
7:15 PM 14.0 °F - 10.4 °F 86% 30.54 in 10.0 mi Calm Calm - N/A   Clear
7:35 PM 10.4 °F - 6.8 °F 85% 30.54 in 7.0 mi Calm Calm - N/A   Clear
7:55 PM 8.6 °F 2.0 °F 6.8 °F 92% 30.55 in 10.0 mi East 3.5 mph - N/A   Scattered Clouds
8:15 PM 14.0 °F - 14.0 °F 100% 30.54 in 10.0 mi Calm Calm - N/A   Scattered Clouds
8:35 PM 10.4 °F - 8.6 °F 92% 30.54 in 10.0 mi Calm Calm - N/A   Clear
8:55 PM 10.4 °F - 8.6 °F 92% 30.53 in 7.0 mi Calm Calm - N/A   Clear
9:15 PM 10.4 °F - 8.6 °F 92% 30.54 in 7.0 mi Calm Calm - N/A   Clear
9:35 PM 10.4 °F - 8.6 °F 92% 30.55 in 7.0 mi Calm Calm - N/A   Clear
9:55 PM 10.4 °F - 8.6 °F 92% 30.56 in 7.0 mi Calm Calm - N/A   Clear
10:15 PM 10.4 °F - 8.6 °F 92% 30.55 in 7.0 mi Calm Calm - N/A   Clear
10:35 PM 10.4 °F - 6.8 °F 85% 30.55 in 7.0 mi Calm Calm - N/A   Clear
10:55 PM 10.4 °F 0.8 °F 6.8 °F 85% 30.55 in 10.0 mi ESE 5.8 mph - N/A   Mostly Cloudy
11:15 PM 10.4 °F - 8.6 °F 92% 30.55 in 7.0 mi Calm Calm - N/A   Scattered Clouds
11:35 PM 8.6 °F - 6.8 °F 92% 30.54 in 7.0 mi Calm Calm - N/A   Clear
11:55 PM 6.8 °F - 3.2 °F 85% 30.55 in 7.0 mi Calm Calm - N/A   Clear